Scottsbluff, NE

10:56 PM MDT on July 20, 2017 (GMT -0600)
Heilig

Weather History for KBFF - June, 2013

Change the Weather History Date:

Saturday, June 22, 2013

  Actual Average Record
Temperature  
Mean Temperature 68 °F 69 °F  
Max Temperature 83 °F 85 °F 104 °F (1936)
Min Temperature 53 °F 54 °F 38 °F (1989)
Degree Days  
Heating Degree Days 0 1  
Month to date heating degree days 21 52  
Since 1 June heating degree days 21 52  
Since 1 July heating degree days 6306 6607  
Cooling Degree Days 3 5  
Month to date cooling degree days 115 74  
Year to date cooling degree days 169 97  
Since 1 June cooling degree days 115 74  
Growing Degree Days 18 (Base 50)    
Moisture  
Dew Point 56 °F    
Average Humidity 70    
Maximum Humidity 93    
Minimum Humidity 47    
Precipitation  
Precipitation 0.72 in 0.09 in 1.79 in (2006)
Month to date precipitation 1.54 2.26  
Year to date precipitation 6.18 8.58  
Snow  
Snow 0.00 in 0.00 in - ()
Month to date snowfall 0.0 0.0  
Since 1 July snowfall 43.9 42.1  
Snow Depth 0.00 in    
Sea Level Pressure  
Sea Level Pressure 29.80 in    
Wind  
Wind Speed 9 mph (ENE)    
Max Wind Speed 38 mph    
Max Gust Speed 45 mph    
Visibility 9 miles    
Events Rain , Thunderstorm    
T = Trace of Precipitation, MM = Missing Value Source: NWS Daily Summary

Daily Weather History Graph

Daily Weather History Graph

Search for Another Location

Airport or City:

Trip Planner

Search our weather history database for the weather conditions in past years. The results will help you decide how hot, cold, wet, or windy it might be!

Date:

Astronomy

Jun. 22, 2013 Rise Set
Actual Time 5:19 AM MDT 8:33 PM MDT
Civil Twilight 4:45 AM MDT 9:07 PM MDT
Nautical Twilight 4:01 AM MDT 9:51 PM MDT
Astronomical Twilight 3:07 AM MDT 10:45 PM MDT
Moon 7:49 PM MDT (6/22) 4:35 AM MDT (6/22)
Length of Visible Light 16h 22m
Length of Day
15h 13m
Waxing Gibbous, 99% of the Moon is Illuminated
Jun 22
Waxing Gibbous
Jun 23
Full
Jun 29
Last Quarter
Jul 8
New
Jul 15
First Quarter

Hourly Weather History & Observations

Time (MDT) Temp. Heat Index Dew Point Humidity Pressure Visibility Wind Dir Wind Speed Gust Speed Precip Events Conditions
12:11 AM 69.8 °F - 48.2 °F 46% 29.95 in 10.0 mi NE 11.5 mph 16.1 mph N/A   Clear
12:32 AM 66.2 °F - 50.0 °F 56% 29.95 in 10.0 mi Calm Calm - N/A Thunderstorm Clear
12:53 AM 64.9 °F - 51.1 °F 61% 29.78 in 10.0 mi East 3.5 mph - N/A   Clear
1:53 AM 62.1 °F - 52.0 °F 70% 29.78 in 10.0 mi Calm Calm - N/A   Clear
2:53 AM 57.9 °F - 53.1 °F 84% 29.79 in 10.0 mi NNW 6.9 mph - N/A   Clear
3:53 AM 55.9 °F - 52.0 °F 87% 29.82 in 10.0 mi West 5.8 mph - N/A   Clear
4:53 AM 54.0 °F - 51.1 °F 90% 29.84 in 10.0 mi NNW 4.6 mph - N/A   Clear
5:53 AM 54.0 °F - 52.0 °F 93% 29.86 in 10.0 mi NNW 5.8 mph - N/A   Clear
6:53 AM 57.9 °F - 54.0 °F 87% 29.86 in 10.0 mi WNW 4.6 mph - N/A   Scattered Clouds
7:53 AM 64.9 °F - 54.0 °F 68% 29.88 in 10.0 mi NNE 4.6 mph - N/A   Mostly Cloudy
8:53 AM 66.9 °F - 53.1 °F 61% 29.87 in 10.0 mi ESE 3.5 mph - N/A   Overcast
9:53 AM 70.0 °F - 54.0 °F 57% 29.84 in 10.0 mi Calm Calm - N/A   Overcast
10:53 AM 73.9 °F - 55.0 °F 52% 29.81 in 10.0 mi Calm Calm - N/A   Overcast
11:53 AM 75.9 °F - 55.9 °F 50% 29.79 in 10.0 mi SSE 5.8 mph - N/A   Mostly Cloudy
12:53 PM 78.1 °F - 57.9 °F 50% 29.77 in 10.0 mi SSE 10.4 mph 16.1 mph N/A   Clear
1:53 PM 81.0 °F 81.3 °F 59.0 °F 47% 29.73 in 10.0 mi ESE 13.8 mph - N/A   Clear
2:53 PM 82.9 °F 83.2 °F 60.1 °F 46% 29.70 in 10.0 mi SE 17.3 mph 26.5 mph N/A   Clear
3:53 PM 79.0 °F - 60.1 °F 52% 29.68 in 10.0 mi East 21.9 mph 29.9 mph N/A   Scattered Clouds
4:18 PM 78.8 °F - 59.0 °F 51% 29.77 in 10.0 mi East 24.2 mph 29.9 mph N/A Thunderstorm Mostly Cloudy
4:33 PM 77.0 °F - 59.0 °F 54% 29.77 in 10.0 mi East 23.0 mph 36.8 mph N/A   Scattered Clouds
4:46 PM 75.2 °F - 60.8 °F 61% 29.79 in 10.0 mi East 17.3 mph 26.5 mph N/A Thunderstorm Scattered Clouds
4:53 PM 75.9 °F - 60.1 °F 58% 29.69 in 10.0 mi East 16.1 mph - N/A Thunderstorm Scattered Clouds
5:51 PM 66.2 °F - 64.4 °F 94% 29.91 in 1.8 mi NW 25.3 mph 29.9 mph 0.05 in Rain , Thunderstorm Heavy Thunderstorms and Rain
5:53 PM 66.0 °F - 64.0 °F 93% 29.83 in 1.2 mi NNW 19.6 mph 29.9 mph 0.12 in Rain , Thunderstorm Heavy Thunderstorms and Rain
5:55 PM 64.4 °F - 62.6 °F 94% 29.91 in 1.0 mi NNW 20.7 mph 29.9 mph 0.12 in Rain , Thunderstorm Heavy Thunderstorms and Rain
6:11 PM 64.4 °F - 57.2 °F 77% 29.80 in 3.0 mi ENE 24.2 mph 33.4 mph 0.60 in Rain , Thunderstorm Thunderstorms and Rain
6:24 PM 66.2 °F - 60.8 °F 83% 29.76 in 10.0 mi ENE 38.0 mph 44.9 mph 0.60 in Thunderstorm Thunderstorm
6:53 PM 68.0 °F - 60.1 °F 76% 29.70 in 10.0 mi East 16.1 mph 28.8 mph 0.60 in Thunderstorm Mostly Cloudy
7:07 PM 66.2 °F - 57.2 °F 73% 29.84 in 10.0 mi East 9.2 mph - N/A   Overcast
7:18 PM 69.8 °F - 55.4 °F 60% 29.85 in 10.0 mi NNE 17.3 mph 25.3 mph N/A Thunderstorm Thunderstorm
7:53 PM 64.9 °F - 54.0 °F 68% 29.76 in 10.0 mi ENE 13.8 mph 25.3 mph 0.00 in   Mostly Cloudy
8:53 PM 64.0 °F - 55.9 °F 75% 29.77 in 10.0 mi SSE 9.2 mph - 0.00 in Rain Light Rain
9:53 PM 62.1 °F - 54.0 °F 75% 29.76 in 10.0 mi South 5.8 mph - 0.00 in   Clear
10:53 PM 61.0 °F - 55.9 °F 83% 29.75 in 10.0 mi NNW 9.2 mph - N/A   Clear
11:53 PM 60.1 °F - 57.0 °F 90% 29.74 in 10.0 mi NW 4.6 mph - N/A   Clear